Погода в Клине

Погода в Клине : погода сейчас, прогноз погоды и архив. Всё, что Вы хотите узнать о погоде в Клине!

Хотите узнать прогноз погоды в Клине? Тогда Вам сюда: Погода в Клине

Поиск расширенной информации на нашем сайте:

Другие новости

Новости СМИ2

Главная страница сайта

Новости сайта

03.07.2017

Напоминаем, что на нашем специализированном сайте Метеоцентр.Азия вы можете получить высокодетализированные автоматические прогнозы погоды по пунктам России, СНГ и мира в авиационном формате (включающие направление и скорость ветра, видимость, явления погоды, количество и форму облачности, нижнюю и верхнюю границу облачности).


Погода в Клине - сегодня

Время (UTC), дата Ветер
(°,м/с) 
Видим.   Явления Облачность Т
(°С)
Тd
(°С)
f(%) Тe
(°С)
Pmin
(гПа)
dP
(гПа)
Po
(мм)
O2
(г/м3)
Тmin Tmax R s Состояние
почвы
12 20.10.17 270 (З) 10 км    10/10 600 м кучево-дожд. 
[Cb calv]
+5.9 +0.5 68 +6  1021.3  -0.4  751  296           
15 20.10.17 320 (СЗ) 10 км  слаб. ливневой дождь  10/10 600 м кучево-дожд. 
[Cb cap]
+4 +1.5 84 +5  1021.3  -0.1  751  298      0.3     
18 20.10.17 260 (З) 10 км  {ливн. осадки}  10/10 1000 м 
[Sc]
+2.9 +1.5 90 +4  1021.3  0.1  750  299    +6.4  0.3     
21 20.10.17 280 (З) 10 км    10/10 1000 м 
[Sc]
+2.5 +1.4 92 +3  1021.3  0.1  750  299           
00 21.10.17 270 (З) 10 км    10/10 600 м 
[Sc]
+2.1 +1.2 94 +1  1020.6  -0.7  750  300           
03 21.10.17 290 (З) 10 км    10/10 600 м 
[Sc]
+1.9 +0.7 92 +3  1020.3  -0.2  750  300  +1.8    0.0     
06 21.10.17 330 (СЗ) 10 км  {дождь}  10/10 600 м 
[Sc]
+1.5 +0.3 92 +2  1020.7  0.3  750  300  +1.3    0.0    влажная 
09 21.10.17 350 (С) 10 км  {ливн. осадки}  8/8 600 м 
[Cu Sc]
+2.7 -1.9 72 +2  1020.7  0.1  750  299           
12 21.10.17 360 (С) 10 км  {ливн. осадки}  8/4 600 м средняя 
[Cu Sc|Ac cuf]
+1.8 -3.4 68 +1  1020.1  -0.7  749  300           
15 21.10.17 360 (С) 10 км    9/9 600 м 
[Sc]
+0.6 -2.8 78 +1  1020.3  0.1  750  302      0.0     
18 21.10.17 320 (СЗ) 10 км    9/9 1000 м 
[Sc]
-0.7 -2.8 86 1020.5  0.1  750  303    +4.3  0.0     
21 21.10.17 тихо ()   10 км    6/3 1000 м средняя 
[Sc|Ac cuf]
-2.2 -3.4 91 -2  1020.6  750  305           
00 22.10.17 тихо ()   10 км    ясно 
-4.3 -5 95 -4  1020.4  -0.4  749  307           
03 22.10.17 тихо ()   10 км    1/0 верхняя 
[Cs]
-5.8 -6.6 94 -6  1020.4  -0.1  749  309  -5.8         
06 22.10.17 260 (З) 10 км    ясно 
-3.6 -4.4 94 -3  1020.1  0.1  749  306  -6.1        влажная 
09 22.10.17 270 (З) 10 км    3/1 600 м верхняя 
[Cu hum|Cc]
+2.2 -3.1 68 +2  1019.1  -0.6  749  300           
12 22.10.17 270 (З) 10 км    9/9 600 м 
[Sc]
+2.1 -4.5 62 +1  1018.3  -0.7  748  300           
15 22.10.17 230 (ЮЗ) 10 км    9/9 600 м 
[Sc diur, vesp]
+0.5 -5 67 +1  1017.6  -0.8  748  301           
18 22.10.17 250 (З) 4000 м  слаб. ливневой снег  10/10 600 м кучево-дожд. 
[Cb cap]
-0.3 -1.8 90 -1  1017.2  -0.4  747  302    +3  0.2     
21 22.10.17 260 (З) 4000 м  слаб. ливневой снег  10/10 600 м кучево-дожд. 
[Cb cap]
-0.5 -1.5 93 -1  1016.9  -0.4  747  302           
00 23.10.17 270 (З) 4000 м  слаб. ливневой снег  10/10 600 м кучево-дожд. 
[Cb cap]
-0.5 -1.3 94 -1  1016.8  0.1  747  302           
03 23.10.17 290 (З) 4000 м  слаб. ливневой снег  10/10 600 м кучево-дожд. 
[Cb cap]
-0.5 -1.3 94 1017.6  0.8  748  302  -0.6       
06 23.10.17 360 (С) 10 км  {ливн. осадки}  10/10 600 м кучево-дожд. 
[Cb calv]
-0.5 -1.5 93 1019.4  1.7  749  302  -0.6    равномерный
сухой снег
100% 
09 23.10.17 340 (С) 10 км    10/10 600 м 
[Sc]
-0.2 -4.2 74 -1  1021.3  1.9  750  303           
12 23.10.17 340 (С) 10 км    10/10 600 м 
[Sc]
+0.4 -4.1 72 +1  1022.9  1.6  752  303           
Время (UTC), дата Ветер
(°,м/с) 
Видим.   Явления Облачность Т
(°С)
Тd
(°С)
f(%) Тe
(°С)
Pmin
(гПа)
dP
(гПа)
Po
(мм)
O2
(г/м3)
Тmin Tmax R s Состояние
почвы

Для получения пояснительной информации подведите курсор к названию столбца.

ПОГОДА в Клине - архив

Всё, что Вы хотите узнать о погоде в Клине - удобно и подробно!

Выберите нужную дату (начиная с 1 января 2015* года) и нажмите кнопку "Найти".
Будут отображены архивные сводки погоды по пункту Клин, начиная с указанной даты.


Отображать данные в формате CSV (для использования в таблицах Excel)


Внимание! Наш архив погоды предназначен исключительно для личного некоммерческого использования в познавательных целях. Если Вам необходимы официальные справки о состоянии погоды (для производственных, юридических, коммерческих и т.п. целей), обращайтесь в органы Росгидромета.

*Примечание: данная дата относится к архиву по метеостанциям СССР (Россия, СНГ, Балтия).
Архив по метеостанциям Зарубежной Европы и Азии (кроме Китая) хранится 10 дней, по другим регионам земного шара (Китай, Африка, Америка, Австралия, Океания) - 1 день.

Клин - район местоположения метеостанции


Название, широта, долгота, высота метеостанции:
Клин 56.3°ш. 36.8°д. 167 м над ур. моря [Российская Федерация]

Дополнительная информация

В oтличие oт бoльшинства пoгoдных сайтoв мы публикуем пoдрoбную метеoинфoрмацию в детальнoм прoфессиoнальнoм фoрмате.

Характеристики температуры и влажнoсти вoздуха измеряются на высoте 2 м в тени вдали oт зданий и деревьев.
Скoрoсть ветра измеряется на высoте 10 м (на урoвне рoста челoвека скoрoсть ветра ниже в 1.5-2 раза). Если метеoстанция нахoдится в гoрoде или в лесу, тo скoрoсть ветра занижена на 2-4 м/с пo сравнению с oткрытым местoм. Скoрoсть ветра над акватoриями крупных рек и oзёр, а также на вершинах хoлмoв на 2-5 м/с выше, чем в oбычных услoвиях.
Атмoсфернoе давление в разных тoчках местнoсти мoжет значительнo oтличаться oт давления на метеoстанции, в зависимoсти oт услoвий рельефа (при пoдъёме на 10 м давление пoнижается примернo на 1 мм рт.ст.).